{"data":{"norad_id":69471,"intl_designator":"2026-127AE","name":"STARLINK-37451","alt_names":[],"object_type":"PAYLOAD","status":"ACTIVE","operator":null,"country":"US","launch_date":"2026-06-08","launch_site_code":"AFETR","launch_vehicle":null,"mission":null,"orbit_class":"UNKNOWN","rcs_meters":null,"size_class":null,"mass_kg":null,"dimensions":null,"purposes":["comms"],"wikipedia_slug":null,"has_3d_model":false,"image_url":null,"decayed_at":null,"tle_current":{"epoch":"2026-09-19T05:50:36.375648Z","epoch_age_seconds":134068,"freshness":"FRESH","line1":"1 69471U 26127AE  26262.24347657  .00020378  00000+0  61234-3 0  9999","line2":"2 69471  53.1561 171.2374 0001481  93.2422 266.8750 15.34413086 16007","mean_motion":15.34413086,"eccentricity":0.0001481,"inclination_deg":53.1561,"raan_deg":171.2374,"arg_perigee_deg":93.2422,"mean_anomaly_deg":266.875,"bstar":0.00061234,"rev_number":1600,"period_min":93.846957715531,"perigee_km":461.65122345442,"apogee_km":463.67746881314,"semimajor_km":6840.8013461338,"source":"CELESTRAK","updated_at":"2026-09-20T09:00:44.204748Z"}}}